| time (UTC) | temp F | wind direction | speed MPH | gust MPH | rain 1hr in | rain 24hr in | rain mn in | humidity % | barometer mb |
| 20260510144857 | 55 | 205 | 0.0 | 6.0 | 0.00 | 0.00 | 0.00 | 59 | 1020.6 |
| 20260510144354 | 53 | 217 | 0.0 | 0.0 | 0.00 | 0.00 | 0.00 | 63 | 1020.8 |
| 20260510143849 | 52 | 211 | 0.0 | 0.0 | 0.00 | 0.00 | 0.00 | 65 | 1020.8 |
| 20260510143345 | 51 | 212 | 0.0 | 0.0 | 0.00 | 0.00 | 0.00 | 68 | 1020.9 |
| 20260510142842 | 51 | 220 | 0.0 | 0.0 | 0.00 | 0.00 | 0.00 | 69 | 1020.8 |
| 20260510142338 | 50 | 246 | 0.0 | 3.0 | 0.00 | 0.00 | 0.00 | 68 | 1021.1 |
| 20260510141835 | 50 | 224 | 2.0 | 4.0 | 0.00 | 0.00 | 0.00 | 70 | 1020.9 |
| 20260510141333 | 49 | 209 | 0.0 | 0.0 | 0.00 | 0.00 | 0.00 | 70 | 1020.9 |
| 20260510140830 | 50 | 208 | 0.0 | 0.0 | 0.00 | 0.00 | 0.00 | 70 | 1020.9 |
| 20260510140326 | 49 | 231 | 2.0 | 3.0 | 0.00 | 0.00 | 0.00 | 70 | 1020.8 |
| 20260510135825 | 49 | 213 | 2.0 | 2.0 | 0.00 | 0.00 | 0.00 | 71 | 1020.9 |
| 20260510135321 | 48 | 215 | 0.0 | 0.0 | 0.00 | 0.00 | 0.00 | 72 | 1020.8 |
| 20260510134819 | 48 | 220 | 0.0 | 0.0 | 0.00 | 0.00 | 0.00 | 72 | 1021.0 |
| 20260510134316 | 48 | 223 | 0.0 | 0.0 | 0.00 | 0.00 | 0.00 | 71 | 1020.9 |
| 20260510133811 | 47 | 228 | 0.0 | 0.0 | 0.00 | 0.00 | 0.00 | 72 | 1020.8 |
| 20260510133308 | 46 | 246 | 0.0 | 2.0 | 0.00 | 0.00 | 0.00 | 75 | 1021.0 |
| 20260510132803 | 45 | 248 | 0.0 | 0.0 | 0.00 | 0.00 | 0.00 | 77 | 1020.9 |
| 20260510132305 | 44 | 249 | 0.0 | 0.0 | 0.00 | 0.00 | 0.00 | 78 | 1021.1 |
| 20260510131758 | 44 | 247 | 0.0 | 0.0 | 0.00 | 0.00 | 0.00 | 80 | 1021.0 |
| 20260510131256 | 43 | 265 | 0.0 | 2.0 | 0.00 | 0.00 | 0.00 | 81 | 1021.0 |
| 20260510130752 | 43 | 214 | 0.0 | 0.0 | 0.00 | 0.00 | 0.00 | 82 | 1021.1 |
| 20260510130249 | 43 | 265 | 0.0 | 0.0 | 0.00 | 0.00 | 0.00 | 83 | 1020.9 |
| 20260510125746 | 42 | 218 | 0.0 | 0.0 | 0.00 | 0.00 | 0.00 | 83 | 1021.1 |
| 20260510125241 | 42 | 235 | 0.0 | 0.0 | 0.00 | 0.00 | 0.00 | 84 | 1021.2 |
| 20260510124738 | 42 | 235 | 0.0 | 0.0 | 0.00 | 0.00 | 0.00 | 85 | 1020.9 |
| 20260510124236 | 42 | 230 | 0.0 | 0.0 | 0.00 | 0.00 | 0.00 | 84 | 1021.0 |
| 20260510123731 | 42 | 230 | 0.0 | 0.0 | 0.00 | 0.00 | 0.00 | 85 | 1021.1 |
| 20260510123227 | 41 | 231 | 0.0 | 0.0 | 0.00 | 0.00 | 0.00 | 85 | 1021.0 |
| 20260510122724 | 41 | 244 | 0.0 | 0.0 | 0.00 | 0.00 | 0.00 | 86 | 1021.2 |
| 20260510122220 | 41 | 244 | 0.0 | 0.0 | 0.00 | 0.00 | 0.00 | 87 | 1020.9 |
| 20260510121716 | 40 | 258 | 0.0 | 0.0 | 0.00 | 0.00 | 0.00 | 88 | 1021.0 |
| 20260510121214 | 40 | 268 | 0.0 | 0.0 | 0.00 | 0.00 | 0.00 | 88 | 1021.1 |
| 20260510120711 | 40 | 292 | 0.0 | 0.0 | 0.00 | 0.00 | 0.00 | 88 | 1021.1 |
| 20260510120208 | 40 | 258 | 0.0 | 0.0 | 0.00 | 0.00 | 0.00 | 89 | 1021.2 |
| 20260510115703 | 39 | 267 | 0.0 | 0.0 | 0.00 | 0.00 | 0.00 | 88 | 1021.2 |
| 20260510115202 | 40 | 273 | 0.0 | 0.0 | 0.00 | 0.00 | 0.00 | 87 | 1021.1 |
| 20260510114657 | 40 | 291 | 0.0 | 0.0 | 0.00 | 0.00 | 0.00 | 86 | 1021.1 |
| 20260510114154 | 41 | 287 | 0.0 | 0.0 | 0.00 | 0.00 | 0.00 | 86 | 1021.1 |
| 20260510113649 | 41 | 265 | 0.0 | 0.0 | 0.00 | 0.00 | 0.00 | 86 | 1021.0 |
| 20260510113146 | 41 | 274 | 0.0 | 0.0 | 0.00 | 0.00 | 0.00 | 85 | 1021.1 |
| 20260510112642 | 41 | 226 | 0.0 | 0.0 | 0.00 | 0.00 | 0.00 | 84 | 1021.2 |
| 20260510112139 | 42 | 251 | 0.0 | 0.0 | 0.00 | 0.00 | 0.00 | 84 | 1021.2 |
| 20260510111635 | 42 | 252 | 0.0 | 0.0 | 0.00 | 0.00 | 0.00 | 84 | 1021.1 |
| 20260510111132 | 42 | 252 | 0.0 | 0.0 | 0.00 | 0.00 | 0.00 | 85 | 1021.1 |
| 20260510110627 | 42 | 252 | 0.0 | 0.0 | 0.00 | 0.00 | 0.00 | 83 | 1021.1 |
| 20260510110126 | 43 | 232 | 0.0 | 0.0 | 0.00 | 0.00 | 0.00 | 83 | 1021.2 |
| 20260510105621 | 43 | 224 | 0.0 | 0.0 | 0.00 | 0.00 | 0.00 | 82 | 1021.5 |
| 20260510105120 | 43 | 224 | 0.0 | 0.0 | 0.00 | 0.00 | 0.00 | 82 | 1021.3 |
| 20260510104618 | 44 | 224 | 0.0 | 0.0 | 0.00 | 0.00 | 0.00 | 82 | 1021.2 |
| 20260510104114 | 44 | 224 | 0.0 | 0.0 | 0.00 | 0.00 | 0.00 | 82 | 1021.2 |
| 20260510103611 | 44 | 217 | 0.0 | 0.0 | 0.00 | 0.00 | 0.00 | 81 | 1021.3 |
| 20260510103107 | 44 | 204 | 0.0 | 0.0 | 0.00 | 0.00 | 0.00 | 80 | 1021.4 |
| 20260510102603 | 44 | 187 | 0.0 | 0.0 | 0.00 | 0.00 | 0.00 | 79 | 1021.3 |
| 20260510102059 | 44 | 207 | 0.0 | 0.0 | 0.00 | 0.00 | 0.00 | 80 | 1021.4 |
| 20260510101557 | 45 | 204 | 0.0 | 0.0 | 0.00 | 0.00 | 0.00 | 79 | 1021.4 |
| 20260510101055 | 45 | 166 | 0.0 | 0.0 | 0.00 | 0.00 | 0.00 | 78 | 1021.4 |
| 20260510100551 | 45 | 198 | 0.0 | 0.0 | 0.00 | 0.00 | 0.00 | 78 | 1021.3 |
| 20260510100048 | 45 | 160 | 0.0 | 0.0 | 0.00 | 0.00 | 0.00 | 78 | 1021.4 |
| 20260510095544 | 45 | 140 | 0.0 | 0.0 | 0.00 | 0.00 | 0.00 | 78 | 1021.4 |
| 20260510095043 | 45 | 97 | 0.0 | 0.0 | 0.00 | 0.00 | 0.00 | 77 | 1021.5 |
| 20260510094538 | 46 | 98 | 0.0 | 0.0 | 0.00 | 0.00 | 0.00 | 76 | 1021.4 |
| 20260510094034 | 46 | 97 | 0.0 | 0.0 | 0.00 | 0.00 | 0.00 | 76 | 1021.3 |
| 20260510093530 | 46 | 55 | 0.0 | 0.0 | 0.00 | 0.00 | 0.00 | 77 | 1021.4 |
| 20260510093027 | 46 | 50 | 0.0 | 0.0 | 0.00 | 0.00 | 0.00 | 77 | 1021.3 |
| 20260510092524 | 46 | 56 | 0.0 | 0.0 | 0.00 | 0.00 | 0.00 | 77 | 1021.4 |
| 20260510092024 | 46 | 51 | 0.0 | 0.0 | 0.00 | 0.00 | 0.00 | 77 | 1021.4 |
| 20260510091521 | 45 | 56 | 0.0 | 0.0 | 0.00 | 0.00 | 0.00 | 78 | 1021.5 |
| 20260510091016 | 45 | 33 | 0.0 | 0.0 | 0.00 | 0.00 | 0.00 | 77 | 1021.5 |
| 20260510090514 | 45 | 97 | 0.0 | 0.0 | 0.00 | 0.00 | 0.00 | 76 | 1021.5 |
| 20260510090009 | 46 | 228 | 0.0 | 0.0 | 0.00 | 0.00 | 0.00 | 75 | 1021.3 |
| 20260510085504 | 46 | 228 | 0.0 | 0.0 | 0.00 | 0.00 | 0.00 | 76 | 1021.4 |
| 20260510085000 | 46 | 228 | 0.0 | 0.0 | 0.00 | 0.00 | 0.00 | 76 | 1021.6 |
| 20260510084457 | 46 | 228 | 0.0 | 0.0 | 0.00 | 0.00 | 0.00 | 76 | 1021.4 |
| 20260510083954 | 46 | 226 | 0.0 | 0.0 | 0.00 | 0.00 | 0.00 | 75 | 1021.5 |
| 20260510083451 | 47 | 210 | 0.0 | 0.0 | 0.00 | 0.00 | 0.00 | 75 | 1021.5 |
| 20260510082946 | 47 | 191 | 0.0 | 0.0 | 0.00 | 0.00 | 0.00 | 73 | 1021.4 |
| 20260510082444 | 47 | 183 | 0.0 | 0.0 | 0.00 | 0.00 | 0.00 | 73 | 1021.5 |
| 20260510081943 | 48 | 184 | 0.0 | 0.0 | 0.00 | 0.00 | 0.00 | 72 | 1021.3 |
| 20260510081439 | 49 | 155 | 1.0 | 2.0 | 0.00 | 0.00 | 0.00 | 70 | 1021.4 |
| 20260510080935 | 50 | 141 | 0.0 | 3.0 | 0.00 | 0.00 | 0.00 | 69 | 1021.6 |
| 20260510080434 | 48 | 132 | 1.0 | 3.0 | 0.00 | 0.00 | 0.00 | 72 | 1021.4 |
| 20260510075931 | 48 | 135 | 0.0 | 0.0 | 0.00 | 0.00 | 0.00 | 72 | 1021.6 |
| 20260510075429 | 48 | 180 | 0.0 | 0.0 | 0.00 | 0.00 | 0.00 | 73 | 1021.7 |
| 20260510074926 | 48 | 222 | 0.0 | 0.0 | 0.00 | 0.00 | 0.00 | 72 | 1021.5 |
| 20260510074423 | 48 | 248 | 0.0 | 0.0 | 0.00 | 0.00 | 0.00 | 72 | 1021.4 |
| 20260510073919 | 48 | 259 | 0.0 | 0.0 | 0.00 | 0.00 | 0.00 | 72 | 1021.3 |
| 20260510073415 | 49 | 264 | 0.0 | 0.0 | 0.00 | 0.00 | 0.00 | 72 | 1021.3 |
| 20260510072911 | 49 | 241 | 0.0 | 0.0 | 0.00 | 0.00 | 0.00 | 73 | 1021.4 |
| 20260510072408 | 49 | 241 | 0.0 | 0.0 | 0.00 | 0.00 | 0.00 | 72 | 1021.6 |
| 20260510071904 | 49 | 241 | 0.0 | 0.0 | 0.00 | 0.00 | 0.00 | 72 | 1021.4 |
| 20260510071401 | 49 | 241 | 0.0 | 0.0 | 0.00 | 0.00 | 0.00 | 72 | 1021.6 |
| 20260510070859 | 50 | 236 | 0.0 | 0.0 | 0.00 | 0.00 | 0.00 | 70 | 1021.6 |
| 20260510070356 | 50 | 206 | 0.0 | 0.0 | 0.00 | 0.00 | 0.00 | 68 | 1021.6 |
| 20260510065856 | 51 | 174 | 0.0 | 0.0 | 0.00 | 0.00 | 0.00 | 67 | 1021.4 |
| 20260510065353 | 51 | 159 | 0.0 | 0.0 | 0.00 | 0.00 | 0.00 | 67 | 1021.5 |
| 20260510064849 | 51 | 177 | 0.0 | 0.0 | 0.00 | 0.00 | 0.00 | 67 | 1021.6 |
| 20260510064347 | 51 | 204 | 0.0 | 0.0 | 0.00 | 0.00 | 0.00 | 66 | 1021.4 |
| 20260510063843 | 52 | 209 | 0.0 | 0.0 | 0.00 | 0.00 | 0.00 | 66 | 1021.4 |
| 20260510063340 | 52 | 152 | 0.0 | 0.0 | 0.00 | 0.00 | 0.00 | 65 | 1021.4 |
| 20260510062837 | 52 | 137 | 1.0 | 1.0 | 0.00 | 0.00 | 0.00 | 66 | 1021.5 |
| 20260510062332 | 51 | 157 | 0.0 | 0.0 | 0.00 | 0.00 | 0.00 | 67 | 1021.4 |
| 20260510061828 | 50 | 271 | 0.0 | 0.0 | 0.00 | 0.00 | 0.00 | 71 | 1021.5 |
| 20260510061325 | 51 | 226 | 0.0 | 0.0 | 0.00 | 0.00 | 0.00 | 68 | 1021.5 |
| 20260510060821 | 51 | 177 | 0.0 | 0.0 | 0.00 | 0.00 | 0.00 | 68 | 1021.5 |
| 20260510060318 | 51 | 198 | 0.0 | 0.0 | 0.00 | 0.00 | 0.00 | 69 | 1021.6 |
| 20260510055815 | 51 | 183 | 0.0 | 0.0 | 0.00 | 0.00 | 0.00 | 68 | 1021.5 |
| 20260510055313 | 51 | 167 | 0.0 | 0.0 | 0.00 | 0.00 | 0.00 | 68 | 1021.4 |
| 20260510054813 | 52 | 145 | 0.0 | 0.0 | 0.00 | 0.00 | 0.00 | 68 | 1021.7 |
| 20260510054309 | 52 | 134 | 0.0 | 0.0 | 0.00 | 0.00 | 0.00 | 68 | 1021.6 |
| 20260510053804 | 51 | 124 | 0.0 | 0.0 | 0.00 | 0.00 | 0.00 | 69 | 1021.4 |
| 20260510053259 | 51 | 116 | 0.0 | 0.0 | 0.00 | 0.00 | 0.00 | 69 | 1021.6 |
| 20260510052756 | 52 | 104 | 0.0 | 1.0 | 0.00 | 0.00 | 0.00 | 69 | 1021.5 |
| 20260510052252 | 52 | 109 | 0.0 | 0.0 | 0.00 | 0.00 | 0.00 | 69 | 1021.6 |
| 20260510051748 | 52 | 105 | 0.0 | 0.0 | 0.00 | 0.00 | 0.00 | 69 | 1021.6 |
| 20260510051245 | 52 | 89 | 0.0 | 0.0 | 0.00 | 0.00 | 0.00 | 69 | 1021.5 |
| 20260510050742 | 51 | 112 | 0.0 | 1.0 | 0.00 | 0.00 | 0.00 | 69 | 1021.6 |
| 20260510050239 | 52 | 104 | 0.0 | 1.0 | 0.00 | 0.00 | 0.00 | 68 | 1021.7 |
| 20260510045735 | 53 | 96 | 0.0 | 2.0 | 0.00 | 0.00 | 0.00 | 67 | 1021.6 |
| 20260510045232 | 53 | 87 | 0.0 | 0.0 | 0.00 | 0.00 | 0.00 | 67 | 1021.6 |
| 20260510044729 | 53 | 95 | 1.0 | 3.0 | 0.00 | 0.00 | 0.00 | 66 | 1021.5 |
| 20260510044227 | 53 | 108 | 2.0 | 3.0 | 0.00 | 0.00 | 0.00 | 66 | 1021.5 |
| 20260510043721 | 53 | 89 | 1.0 | 2.0 | 0.00 | 0.00 | 0.00 | 66 | 1021.4 |
| 20260510043219 | 53 | 78 | 2.0 | 3.0 | 0.00 | 0.00 | 0.00 | 66 | 1021.5 |
| 20260510042716 | 53 | 78 | 0.0 | 0.0 | 0.00 | 0.00 | 0.00 | 65 | 1021.5 |
| 20260510042212 | 54 | 84 | 0.0 | 3.0 | 0.00 | 0.00 | 0.00 | 65 | 1021.4 |
| 20260510041709 | 54 | 67 | 4.0 | 6.0 | 0.00 | 0.00 | 0.00 | 64 | 1021.5 |
| 20260510041206 | 55 | 59 | 2.0 | 3.0 | 0.00 | 0.00 | 0.00 | 62 | 1021.4 |
| 20260510040703 | 55 | 101 | 2.0 | 3.0 | 0.00 | 0.00 | 0.00 | 61 | 1021.6 |
| 20260510040200 | 56 | 75 | 1.0 | 3.0 | 0.00 | 0.00 | 0.00 | 59 | 1021.4 |
| 20260510035655 | 56 | 50 | 2.0 | 6.0 | 0.00 | 0.00 | 0.00 | 57 | 1021.5 |
| 20260510035151 | 55 | 74 | 1.0 | 4.0 | 0.00 | 0.00 | 0.00 | 56 | 1021.3 |
| 20260510034647 | 57 | 96 | 1.0 | 2.0 | 0.00 | 0.00 | 0.00 | 54 | 1021.3 |
| 20260510034145 | 57 | 75 | 0.0 | 2.0 | 0.00 | 0.00 | 0.00 | 53 | 1021.4 |
| 20260510033641 | 57 | 88 | 2.0 | 6.0 | 0.00 | 0.00 | 0.00 | 53 | 1021.1 |
| 20260510033139 | 58 | 63 | 2.0 | 4.0 | 0.00 | 0.00 | 0.00 | 51 | 1020.9 |
| 20260510032635 | 59 | 93 | 0.0 | 0.0 | 0.00 | 0.00 | 0.00 | 50 | 1021.0 |
| 20260510032130 | 59 | 113 | 0.0 | 0.0 | 0.00 | 0.00 | 0.00 | 49 | 1020.9 |
| 20260510031625 | 59 | 118 | 0.0 | 0.0 | 0.00 | 0.00 | 0.00 | 49 | 1020.9 |
| 20260510031123 | 60 | 117 | 0.0 | 0.0 | 0.00 | 0.00 | 0.00 | 48 | 1020.6 |
| 20260510030617 | 61 | 149 | 0.0 | 0.0 | 0.00 | 0.00 | 0.00 | 47 | 1020.6 |
| 20260510030115 | 61 | 148 | 0.0 | 0.0 | 0.00 | 0.00 | 0.00 | 46 | 1020.5 |
| 20260510025612 | 61 | 172 | 0.0 | 0.0 | 0.00 | 0.00 | 0.00 | 46 | 1020.5 |
| 20260510025109 | 61 | 137 | 0.0 | 0.0 | 0.00 | 0.00 | 0.00 | 46 | 1020.5 |
| 20260510024606 | 61 | 193 | 0.0 | 0.0 | 0.00 | 0.00 | 0.00 | 47 | 1020.4 |
| 20260510024102 | 62 | 197 | 0.0 | 0.0 | 0.00 | 0.00 | 0.00 | 47 | 1020.4 |
| 20260510023558 | 62 | 193 | 0.0 | 0.0 | 0.00 | 0.00 | 0.00 | 46 | 1020.4 |
| 20260510023056 | 62 | 172 | 0.0 | 0.0 | 0.00 | 0.00 | 0.00 | 46 | 1020.4 |
| 20260510022550 | 62 | 174 | 0.0 | 0.0 | 0.00 | 0.00 | 0.00 | 46 | 1020.0 |
| 20260510022049 | 62 | 204 | 0.0 | 0.0 | 0.00 | 0.00 | 0.00 | 46 | 1020.4 |
| 20260510021546 | 62 | 204 | 0.0 | 0.0 | 0.00 | 0.00 | 0.00 | 46 | 1020.5 |
| 20260510021044 | 62 | 201 | 0.0 | 0.0 | 0.00 | 0.00 | 0.00 | 46 | 1020.2 |
| 20260510020538 | 62 | 176 | 0.0 | 0.0 | 0.00 | 0.00 | 0.00 | 45 | 1020.1 |
| 20260510020034 | 63 | 183 | 0.0 | 0.0 | 0.00 | 0.00 | 0.00 | 45 | 1020.3 |
| 20260510015530 | 63 | 185 | 0.0 | 0.0 | 0.00 | 0.00 | 0.00 | 44 | 1020.2 |
| 20260510015026 | 64 | 198 | 0.0 | 2.0 | 0.00 | 0.00 | 0.00 | 44 | 1020.2 |
| 20260510014522 | 64 | 213 | 0.0 | 0.0 | 0.00 | 0.00 | 0.00 | 44 | 1020.2 |
| 20260510014020 | 64 | 204 | 0.0 | 2.0 | 0.00 | 0.00 | 0.00 | 43 | 1020.1 |
| 20260510013514 | 64 | 191 | 0.0 | 2.0 | 0.00 | 0.00 | 0.00 | 43 | 1020.2 |
| 20260510013010 | 65 | 198 | 1.0 | 4.0 | 0.00 | 0.00 | 0.00 | 42 | 1020.3 |
| 20260510012504 | 65 | 203 | 2.0 | 3.0 | 0.00 | 0.00 | 0.00 | 42 | 1020.3 |
| 20260510012000 | 65 | 225 | 4.0 | 7.0 | 0.00 | 0.00 | 0.00 | 41 | 1020.1 |
| 20260510011455 | 67 | 219 | 3.0 | 4.0 | 0.00 | 0.00 | 0.00 | 40 | 1020.3 |
| 20260510010951 | 66 | 217 | 2.0 | 6.0 | 0.00 | 0.00 | 0.00 | 41 | 1020.3 |
| 20260510010448 | 66 | 202 | 5.0 | 7.0 | 0.00 | 0.00 | 0.00 | 40 | 1020.2 |
| 20260510005945 | 66 | 235 | 2.0 | 3.0 | 0.00 | 0.00 | 0.00 | 40 | 1020.2 |
| 20260510005441 | 66 | 229 | 0.0 | 0.0 | 0.00 | 0.00 | 0.00 | 41 | 1020.3 |
| 20260510004939 | 66 | 220 | 0.0 | 3.0 | 0.00 | 0.00 | 0.00 | 40 | 1020.3 |
| 20260510004436 | 66 | 205 | 3.0 | 3.0 | 0.00 | 0.00 | 0.00 | 40 | 1020.5 |
| 20260510003934 | 67 | 188 | 2.0 | 7.0 | 0.00 | 0.00 | 0.00 | 40 | 1020.4 |
| 20260510003431 | 66 | 188 | 3.0 | 4.0 | 0.00 | 0.00 | 0.00 | 40 | 1020.4 |
| 20260510002930 | 67 | 205 | 4.0 | 8.0 | 0.00 | 0.00 | 0.00 | 40 | 1020.3 |
| 20260510002427 | 67 | 270 | 1.0 | 3.0 | 0.00 | 0.00 | 0.00 | 40 | 1020.3 |
| 20260510001923 | 68 | 202 | 3.0 | 6.0 | 0.00 | 0.00 | 0.00 | 39 | 1020.3 |
| 20260510001421 | 66 | 218 | 6.0 | 7.0 | 0.00 | 0.00 | 0.00 | 40 | 1020.3 |
| 20260510000919 | 66 | 199 | 6.0 | 8.0 | 0.00 | 0.00 | 0.00 | 40 | 1020.3 |
| 20260510000415 | 66 | 191 | 2.0 | 3.0 | 0.00 | 0.00 | 0.00 | 41 | 1020.2 |
| 20260509235911 | 66 | 219 | 6.0 | 8.0 | 0.00 | 0.00 | 0.00 | 40 | 1020.3 |
| 20260509235408 | 66 | 215 | 4.0 | 6.0 | 0.00 | 0.00 | 0.00 | 40 | 1020.3 |
| 20260509234904 | 66 | 246 | 0.0 | 0.0 | 0.00 | 0.00 | 0.00 | 41 | 1020.2 |
| 20260509234401 | 66 | 224 | 0.0 | 0.0 | 0.00 | 0.00 | 0.00 | 42 | 1020.5 |
| 20260509233859 | 65 | 185 | 0.0 | 0.0 | 0.00 | 0.00 | 0.00 | 42 | 1020.3 |
| 20260509233356 | 66 | 190 | 0.0 | 1.0 | 0.00 | 0.00 | 0.00 | 42 | 1020.5 |
| 20260509232852 | 65 | 192 | 0.0 | 2.0 | 0.00 | 0.00 | 0.00 | 42 | 1020.3 |
| 20260509232350 | 66 | 210 | 0.0 | 0.0 | 0.00 | 0.00 | 0.00 | 41 | 1020.4 |
| 20260509231846 | 66 | 190 | 0.0 | 1.0 | 0.00 | 0.00 | 0.00 | 41 | 1020.1 |
| 20260509231343 | 66 | 235 | 0.0 | 1.0 | 0.00 | 0.00 | 0.00 | 41 | 1020.3 |
| 20260509230841 | 66 | 243 | 0.0 | 3.0 | 0.00 | 0.00 | 0.00 | 41 | 1020.3 |
| 20260509230337 | 66 | 233 | 0.0 | 2.0 | 0.00 | 0.00 | 0.00 | 41 | 1020.4 |
| 20260509225832 | 66 | 243 | 2.0 | 7.0 | 0.00 | 0.00 | 0.00 | 42 | 1020.4 |
| 20260509225330 | 66 | 209 | 1.0 | 2.0 | 0.00 | 0.00 | 0.00 | 42 | 1020.5 |
| 20260509224826 | 65 | 221 | 0.0 | 2.0 | 0.00 | 0.00 | 0.00 | 41 | 1020.6 |
| 20260509224322 | 65 | 232 | 2.0 | 4.0 | 0.00 | 0.00 | 0.00 | 42 | 1020.5 |
| 20260509223819 | 65 | 239 | 0.0 | 3.0 | 0.00 | 0.00 | 0.00 | 42 | 1020.5 |
| 20260509223316 | 65 | 218 | 5.0 | 6.0 | 0.00 | 0.00 | 0.00 | 42 | 1020.5 |
| 20260509222812 | 65 | 306 | 2.0 | 3.0 | 0.00 | 0.00 | 0.00 | 42 | 1020.8 |
| 20260509222308 | 65 | 303 | 1.0 | 3.0 | 0.00 | 0.00 | 0.00 | 42 | 1020.6 |
| 20260509221803 | 65 | 245 | 1.0 | 6.0 | 0.00 | 0.00 | 0.00 | 44 | 1020.6 |
| 20260509221301 | 65 | 249 | 5.0 | 6.0 | 0.00 | 0.00 | 0.00 | 42 | 1020.8 |
| 20260509220756 | 66 | 239 | 4.0 | 4.0 | 0.00 | 0.00 | 0.00 | 42 | 1020.8 |
| 20260509220253 | 66 | 289 | 2.0 | 3.0 | 0.00 | 0.00 | 0.00 | 41 | 1020.6 |
| 20260509215748 | 67 | 248 | 0.0 | 6.0 | 0.00 | 0.00 | 0.00 | 41 | 1020.8 |
| 20260509215245 | 66 | 247 | 2.0 | 3.0 | 0.00 | 0.00 | 0.00 | 41 | 1020.8 |
| 20260509214742 | 66 | 214 | 1.0 | 4.0 | 0.00 | 0.00 | 0.00 | 42 | 1020.9 |
| 20260509214239 | 65 | 222 | 3.0 | 4.0 | 0.00 | 0.00 | 0.00 | 43 | 1021.0 |
| 20260509213736 | 65 | 219 | 2.0 | 7.0 | 0.00 | 0.00 | 0.00 | 42 | 1021.0 |
| 20260509213232 | 64 | 224 | 4.0 | 8.0 | 0.00 | 0.00 | 0.00 | 43 | 1021.0 |
| 20260509212729 | 65 | 190 | 3.0 | 8.0 | 0.00 | 0.00 | 0.00 | 43 | 1020.8 |
| 20260509212226 | 65 | 201 | 6.0 | 8.0 | 0.00 | 0.00 | 0.00 | 43 | 1021.0 |
| 20260509211722 | 66 | 121 | 4.0 | 9.0 | 0.00 | 0.00 | 0.00 | 42 | 1020.9 |
| 20260509211219 | 66 | 165 | 4.0 | 7.0 | 0.00 | 0.00 | 0.00 | 43 | 1021.0 |
| 20260509210715 | 65 | 203 | 9.0 | 10.0 | 0.00 | 0.00 | 0.00 | 44 | 1021.0 |
| 20260509210213 | 65 | 211 | 2.0 | 7.0 | 0.00 | 0.00 | 0.00 | 43 | 1021.1 |
| 20260509205713 | 65 | 226 | 5.0 | 13.0 | 0.00 | 0.00 | 0.00 | 44 | 1021.0 |
| 20260509205212 | 66 | 197 | 12.0 | 13.0 | 0.00 | 0.00 | 0.00 | 43 | 1021.0 |
| 20260509204709 | 68 | 201 | 6.0 | 11.0 | 0.00 | 0.00 | 0.00 | 39 | 1021.0 |
| 20260509204205 | 68 | 233 | 9.0 | 11.0 | 0.00 | 0.00 | 0.00 | 38 | 1020.9 |
| 20260509203701 | 67 | 297 | 2.0 | 9.0 | 0.00 | 0.00 | 0.00 | 40 | 1020.9 |
| 20260509203200 | 67 | 232 | 4.0 | 7.0 | 0.00 | 0.00 | 0.00 | 39 | 1020.9 |
| 20260509202655 | 66 | 244 | 2.0 | 9.0 | 0.00 | 0.00 | 0.00 | 40 | 1021.0 |
| 20260509202150 | 68 | 208 | 4.0 | 10.0 | 0.00 | 0.00 | 0.00 | 38 | 1020.9 |
| 20260509201645 | 67 | 247 | 2.0 | 7.0 | 0.00 | 0.00 | 0.00 | 40 | 1021.1 |
| 20260509201143 | 66 | 260 | 4.0 | 7.0 | 0.00 | 0.00 | 0.00 | 41 | 1020.9 |
| 20260509200638 | 66 | 238 | 2.0 | 7.0 | 0.00 | 0.00 | 0.00 | 40 | 1021.0 |
| 20260509200134 | 65 | 221 | 5.0 | 6.0 | 0.00 | 0.00 | 0.00 | 40 | 1020.9 |
| 20260509195630 | 65 | 211 | 0.0 | 8.0 | 0.00 | 0.00 | 0.00 | 41 | 1021.0 |
| 20260509195125 | 66 | 231 | 3.0 | 6.0 | 0.00 | 0.00 | 0.00 | 40 | 1021.0 |
| 20260509194624 | 67 | 296 | 3.0 | 9.0 | 0.00 | 0.00 | 0.00 | 39 | 1021.0 |
| 20260509194122 | 66 | 238 | 3.0 | 8.0 | 0.00 | 0.00 | 0.00 | 39 | 1021.0 |
| 20260509193618 | 65 | 272 | 3.0 | 4.0 | 0.00 | 0.00 | 0.00 | 41 | 1021.0 |
| 20260509193113 | 64 | 201 | 1.0 | 3.0 | 0.00 | 0.00 | 0.00 | 43 | 1021.0 |
| 20260509192611 | 64 | 261 | 0.0 | 3.0 | 0.00 | 0.00 | 0.00 | 40 | 1021.0 |
| 20260509192105 | 64 | 252 | 2.0 | 6.0 | 0.00 | 0.00 | 0.00 | 42 | 1021.1 |
| 20260509191600 | 63 | 230 | 1.0 | 4.0 | 0.00 | 0.00 | 0.00 | 45 | 1021.0 |
| 20260509191057 | 63 | 221 | 5.0 | 8.0 | 0.00 | 0.00 | 0.00 | 45 | 1021.1 |
| 20260509190553 | 63 | 245 | 2.0 | 6.0 | 0.00 | 0.00 | 0.00 | 44 | 1021.0 |
| 20260509190051 | 64 | 341 | 2.0 | 4.0 | 0.00 | 0.00 | 0.00 | 41 | 1021.0 |
| 20260509185548 | 64 | 247 | 2.0 | 4.0 | 0.00 | 0.00 | 0.00 | 43 | 1020.9 |
| 20260509185044 | 64 | 279 | 2.0 | 7.0 | 0.00 | 0.00 | 0.00 | 42 | 1021.3 |
| 20260509184543 | 64 | 335 | 5.0 | 6.0 | 0.00 | 0.00 | 0.00 | 41 | 1020.9 |
| 20260509184039 | 64 | 251 | 1.0 | 3.0 | 0.00 | 0.00 | 0.00 | 42 | 1021.1 |
| 20260509183534 | 63 | 212 | 0.0 | 4.0 | 0.00 | 0.00 | 0.00 | 41 | 1021.0 |
| 20260509183030 | 63 | 100 | 2.0 | 2.0 | 0.00 | 0.00 | 0.00 | 41 | 1021.1 |
| 20260509182527 | 62 | 185 | 0.0 | 0.0 | 0.00 | 0.00 | 0.00 | 42 | 1020.9 |
| 20260509182024 | 62 | 52 | 0.0 | 0.0 | 0.00 | 0.00 | 0.00 | 41 | 1020.8 |
| 20260509181522 | 62 | 116 | 0.0 | 0.0 | 0.00 | 0.00 | 0.00 | 42 | 1020.8 |
| 20260509181020 | 62 | 117 | 0.0 | 0.0 | 0.00 | 0.00 | 0.00 | 43 | 1021.0 |
| 20260509180514 | 61 | 261 | 0.0 | 0.0 | 0.00 | 0.00 | 0.00 | 43 | 1020.9 |
| 20260509180013 | 61 | 275 | 0.0 | 0.0 | 0.00 | 0.00 | 0.00 | 43 | 1021.2 |
| 20260509175508 | 61 | 0 | 0.0 | 0.0 | 0.00 | 0.00 | 0.00 | 43 | 1021.0 |
| 20260509175005 | 61 | 304 | 0.0 | 0.0 | 0.00 | 0.00 | 0.00 | 43 | 1021.1 |
| 20260509174502 | 62 | 294 | 0.0 | 0.0 | 0.00 | 0.00 | 0.00 | 44 | 1020.6 |
| 20260509174001 | 61 | 202 | 0.0 | 0.0 | 0.00 | 0.00 | 0.00 | 43 | 1020.8 |
| 20260509173457 | 61 | 303 | 0.0 | 0.0 | 0.00 | 0.00 | 0.00 | 44 | 1020.8 |
| 20260509172953 | 62 | 327 | 0.0 | 0.0 | 0.00 | 0.00 | 0.00 | 45 | 1020.8 |
| 20260509172450 | 61 | 328 | 1.0 | 2.0 | 0.00 | 0.00 | 0.00 | 43 | 1020.6 |
| 20260509171945 | 62 | 248 | 0.0 | 1.0 | 0.00 | 0.00 | 0.00 | 42 | 1020.4 |
| 20260509171442 | 61 | 183 | 1.0 | 3.0 | 0.00 | 0.00 | 0.00 | 41 | 1020.4 |
| 20260509170939 | 62 | 125 | 4.0 | 6.0 | 0.00 | 0.00 | 0.00 | 39 | 1020.4 |
| 20260509170435 | 63 | 178 | 4.0 | 8.0 | 0.00 | 0.00 | 0.00 | 40 | 1020.4 |
| 20260509165931 | 64 | 243 | 5.0 | 8.0 | 0.00 | 0.00 | 0.00 | 39 | 1020.3 |
| 20260509165430 | 63 | 133 | 2.0 | 7.0 | 0.00 | 0.00 | 0.00 | 44 | 1020.5 |
| 20260509164926 | 63 | 221 | 3.0 | 4.0 | 0.00 | 0.00 | 0.00 | 45 | 1020.4 |
| 20260509164422 | 63 | 238 | 3.0 | 7.0 | 0.00 | 0.00 | 0.00 | 45 | 1020.3 |
| 20260509163918 | 63 | 227 | 2.0 | 3.0 | 0.00 | 0.00 | 0.00 | 45 | 1020.4 |
| 20260509163416 | 62 | 245 | 0.0 | 2.0 | 0.00 | 0.00 | 0.00 | 46 | 1020.6 |
| 20260509162915 | 62 | 225 | 2.0 | 4.0 | 0.00 | 0.00 | 0.00 | 47 | 1020.2 |
| 20260509162414 | 62 | 222 | 0.0 | 7.0 | 0.00 | 0.00 | 0.00 | 48 | 1020.5 |
| 20260509161909 | 62 | 204 | 0.0 | 3.0 | 0.00 | 0.00 | 0.00 | 47 | 1020.3 |
| 20260509161406 | 62 | 233 | 0.0 | 2.0 | 0.00 | 0.00 | 0.00 | 49 | 1020.3 |
| 20260509160901 | 62 | 273 | 0.0 | 0.0 | 0.00 | 0.00 | 0.00 | 47 | 1020.4 |
| 20260509160357 | 62 | 246 | 0.0 | 2.0 | 0.00 | 0.00 | 0.00 | 47 | 1020.4 |
| 20260509155852 | 61 | 197 | 2.0 | 3.0 | 0.00 | 0.00 | 0.00 | 48 | 1020.1 |
| 20260509155349 | 60 | 193 | 0.0 | 4.0 | 0.00 | 0.00 | 0.00 | 49 | 1020.1 |
| 20260509154846 | 60 | 240 | 0.0 | 3.0 | 0.00 | 0.00 | 0.00 | 51 | 1020.0 |
| 20260509154342 | 60 | 206 | 3.0 | 6.0 | 0.00 | 0.00 | 0.00 | 50 | 1020.1 |
| 20260509153839 | 60 | 272 | 0.0 | 0.0 | 0.00 | 0.00 | 0.00 | 51 | 1020.1 |
| 20260509153336 | 59 | 246 | 1.0 | 2.0 | 0.00 | 0.00 | 0.00 | 52 | 1019.8 |
| 20260509152833 | 59 | 219 | 0.0 | 3.0 | 0.00 | 0.00 | 0.00 | 52 | 1020.0 |
| 20260509152329 | 59 | 219 | 0.0 | 1.0 | 0.00 | 0.00 | 0.00 | 52 | 1020.0 |
| 20260509151826 | 59 | 224 | 0.0 | 4.0 | 0.00 | 0.00 | 0.00 | 54 | 1019.9 |
| 20260509151322 | 59 | 276 | 0.0 | 2.0 | 0.00 | 0.00 | 0.00 | 52 | 1019.9 |
| 20260509150821 | 59 | 239 | 0.0 | 0.0 | 0.00 | 0.00 | 0.00 | 53 | 1019.9 |
| 20260509150318 | 59 | 236 | 1.0 | 4.0 | 0.00 | 0.00 | 0.00 | 53 | 1019.9 |
| 20260509145815 | 58 | 257 | 0.0 | 2.0 | 0.00 | 0.00 | 0.00 | 54 | 1019.9 |
| 20260509145315 | 59 | 246 | 2.0 | 4.0 | 0.00 | 0.00 | 0.00 | 55 | 1019.7 |